Overview Statistics Trail Chart Weather Telemetry Raw packets
 

This is the latest recevied weather packets stored in our database for station/object DB0NLS-15. If no packets are shown the sender has not sent any weather packets the latest 10 day(s).

<< 3 4 5 6 7 8 9 >>
Time Temp. Humidity Pressure Rain* Wind** Luminosity Snow
1788531074 25.56° C 55% 996.6 hPa 0 mm - - -
1788530471 25.56° C 55% 996.8 hPa 0 mm - - -
1788529868 26.11° C 55% 996.7 hPa 0 mm - - -
1788529265 25.56° C 56% 996.8 hPa 0 mm - - -
1788528662 25° C 57% 997.1 hPa 0 mm - - -
1788528059 25.56° C 56% 997.2 hPa 0 mm - - -
1788527457 25° C 57% 997.3 hPa 0 mm - - -
1788526854 25° C 57% 997.4 hPa 0 mm - - -
1788526251 25° C 59% 997.6 hPa 0 mm - - -
1788525648 25° C 59% 997.8 hPa 0 mm - - -
1788525045 24.44° C 59% 997.9 hPa 0 mm - - -
1788524442 25° C 60% 998.1 hPa 0 mm - - -
1788523839 25° C 59% 998.2 hPa 0 mm - - -
1788523237 24.44° C 59% 998.3 hPa 0 mm - - -
1788522633 24.44° C 59% 998.5 hPa 0 mm - - -
1788522029 24.44° C 58% 998.6 hPa 0 mm - - -
1788521426 23.89° C 59% 998.9 hPa 0 mm - - -
1788520823 23.89° C 60% 999.2 hPa 0 mm - - -
1788520221 23.89° C 61% 999.4 hPa 0 mm - - -
1788519618 23.33° C 61% 999.6 hPa 0 mm - - -
1788519075 23.89° C 61% 999.5 hPa 0 mm - - -
1788518472 23.89° C 61% 999.7 hPa 0 mm - - -
1788517869 23.33° C 62% 999.9 hPa 0 mm - - -
1788517266 22.78° C 64% 999.9 hPa 0 mm - - -
1788516664 22.78° C 65% 1000 hPa 0 mm - - -

* Rain latest hour (hover to see other rain measurements)
** Current wind speed in m/s (hover to see current wind gust speed)